AirNav   TITAN Aviation Fuels
 
 1074 users online  

9AK5 Sky Harbor Airport
Anchorage, Alaska, USA

GOING TO ANCHORAGE?


FAA INFORMATION EFFECTIVE 22 APRIL 2021

Location

FAA Identifier: 9AK5
Lat/Long: 61-06-59.3300N 149-49-07.5700W
61-06.988833N 149-49.126167W
61.1164806,-149.8187694
(estimated)
Elevation: 340 ft. / 104 m (estimated)
Variation: 25E (1985)
From city: 7 miles SE of ANCHORAGE, AK
Time zone: UTC -8 (UTC -9 during Standard Time)
Zip code: 99516

Airport Operations

Airport use: Private use. Permission required prior to landing
Activation date: 06/1962
Control tower: no
ARTCC: ANCHORAGE CENTER
FSS: KENAI FLIGHT SERVICE STATION [907-283-7211]
Attendance: UNATNDD
Wind indicator: yes
Segmented circle: no

Airport Communications

CTAF: 122.9
WX ASOS at MRI (6 nm N): 124.25 (907-271-5277)
WX ASOS at LHD (6 nm NW): PHONE 907-245-5432
WX ASOS at ANC (6 nm NW): PHONE 907-271-5278
WX ASOS at FRN (10 nm NE): 134.25

Nearby radio navigation aids

VOR radial/distance  VOR name  Freq  Var
TEDr109/5.1ANCHORAGE VOR/DME113.1518E
BGQr152/27.5BIG LAKE VORTAC112.5019E

Airport Services

Airframe service: NONE
Powerplant service: NONE
Bottled oxygen: NONE
Bulk oxygen: NONE

Runway Information

Runway 16/34

Dimensions: 1800 x 70 ft. / 549 x 21 m
Surface: gravel
Operational restrictions: LAND RWY 34 & TKOF RWY 16.
RUNWAY 16  RUNWAY 34
Traffic pattern: leftleft
Markings: nonenone
Runway end identifier lights: nono
Obstructions: hill/trees, 1200 ft. from runway, 7:1 slope to clear
HILL 1200' AND 50' HIGH.
road, 1000 ft. from runway, 1:1 slope to clear

Airport Ownership and Management from official FAA records

Ownership: Privately-owned
Owner: SKY HBR PRPTY OWNER ASSOC
11641 BARR RD.
ANCHORAGE, AK 99516
APPROXIMATELY 16 OWNERS.
Manager: GORDON A. LEONARD
11641 BARR RD
ANCHORAGE, AK 99516
Phone 907-345-4896

Airport Operational Statistics

Aircraft operations: avg 125/week *
77% local general aviation
23% transient general aviation
* for 12-month period ending 29 May 1979

Instrument Procedures

There are no published instrument procedures at 9AK5.

Some nearby airports with instrument procedures:

PAMR - Merrill Field Airport (6 nm N)
PANC - Ted Stevens Anchorage International Airport (6 nm NW)
PAED - Elmendorf Air Force Base (8 nm N)
PAFR - Bryant Army Airfield Heliport (10 nm NE)
PAGQ - Big Lake Airport (25 nm N)
 
Loc | Ops | Rwys | IFR | FBO | Links
Com | Nav | Svcs | Stats | Notes

Crowley
 
Area around 9AK5 (Sky Harbor Airport)
 
Road maps at: MapQuest Bing Google
 
Aerial photo
No photo
 
Sectional chart

 
Airport distance calculator
Flying to Sky Harbor Airport? Find the distance to fly.

From to 9AK5

Sunrise and sunset
Times for 13-May-2021
 Local
(UTC-8)
 Zulu
(UTC)
Morning civil twilight04:1112:11
Sunrise05:1813:18
Sunset22:3306:33
Evening civil twilight23:4107:41

Current date and time
Zulu (UTC)  13-May-2021 12:27:30
Local (UTC-8)  13-May-2021 04:27:30
 
METAR
PALH 
6nm NW 
131153Z 19006KT 10SM OVC055 07/01 A3016 RMK AO2 SLP214 T00670006 10094 20067 53006
PAMR 
6nm N 
131153Z 21004KT 10SM BKN060 BKN095 07/M01 A3015 RMK AO2 SLP211 60000 T00721006 10106 20072 51005 $
PANC 
6nm NW 
131153Z 16007KT 10SM BKN060 BKN090 07/00 A3015 RMK AO2 SLP211 T00670000 10094 20067 53005 $
PAED 
8nm N 
131156Z 00000KT 10SM BKN050 BKN075 07/01 A3015 RMK AO2A SLP206 60000 T00680013 10106 20066 52006 $
PAFR 
10nm NE 
131158Z AUTO 00000KT 10SM FEW036 BKN049 OVC060 07/01 A3012 RMK AO2 SLP207 T00660009 10093 20056 52006 PNO $
TAF
PANC 
6nm NW 
130526Z 1306/1412 17009KT P6SM SCT060 BKN080 BKN120 FM131900 30005KT P6SM SCT050 BKN080 BKN200
PAED 
8nm N 
131000Z 1310/1416 VRB06KT 9999 BKN040 BKN080 QNH3014INS BECMG 1315/1316 02009KT 9999 SCT045 BKN100 QNH3013INS BECMG 1319/1320 25009KT 9999 SCT060 SCT120 QNH3001INS BECMG 1406/1407 VRB05KT 9999 SCT060 QNH2999INS TX15/1400Z TN05/1314Z
NOTAMs
Click for the latest NOTAMs
NOTAMs are issued by the DoD/FAA and will open in a separate window not controlled by AirNav.

 

 
 

Would you like to see your business listed on this page?

 If your business provides an interesting product or service to pilots, flight crews, aircraft, or users of the Sky Harbor Airport, you should consider listing it here.  To start the listing process, click on the button below
 
Add a business
 

Other Pages about Sky Harbor Airport

Update a link
 
Copyright © AirNav, LLC. All rights reserved. Privacy Policy  Contact